Regional Weather Roundup
Issued by NWS

Home | Current Version | Previous Version | Text Only | Print | Product List | Glossary On
Versions: 1 2 3 4 5 6 7 8 9 10 11 12 13 14 15 16 17 18 19 20 21 22 23 24 25 26 27 28 29 30 31 32 33 34 35 36 37 38 39 40 41 42 43 44 45 46 47 48 49 50
000
ASUS43 KTOP 201608
RWRKS

WEATHER ROUNDUP FOR KANSAS
NATIONAL WEATHER SERVICE GOODLAND KS
1100 AM CDT SUN APR 20 2014

NOTE:  "FAIR" INDICATES FEW OR NO CLOUDS BELOW 12,000 FEET WITH NO
SIGNIFICANT WEATHER AND/OR OBSTRUCTIONS TO VISIBILITY.

KSZ001>006-013>018-027>032-041>047-201700-
NORTHWEST KANSAS

CITY           SKY/WX    TMP DP  RH WIND       PRES   REMARKS
GOODLAND       PTSUNNY   56  49  77 N7        30.01F
HAYS           CLOUDY    72  54  53 S16       30.02R
HILL CITY      CLOUDY    68  54  60 SW9       30.00S
RUSSELL        PTSUNNY   72  51  47 S23       30.01R
$$

KSZ061>065-074>080-084>089-201700-
SOUTHWEST KANSAS

CITY           SKY/WX    TMP DP  RH WIND       PRES   REMARKS
DODGE CITY     CLOUDY    65  51  60 S17       30.03S
ELKHART          N/A     65  49  56 S9          N/A
GARDEN CITY    MOSUNNY   69  52  54 S15       30.00S
GREAT BEND     CLOUDY    66  52  59 S18       30.03R
LIBERAL        SUNNY     66  54  63 S15       30.03S
PRATT          CLOUDY    63  54  72 S14       30.07R
$$

KSZ066>073-081>083-090>101-201700-
SOUTHEAST KANSAS

CITY           SKY/WX    TMP DP  RH WIND       PRES   REMARKS
CHANUTE        MOSUNNY   70  52  52 S16       30.12F
COFFEYVILLE    MOSUNNY   73  53  49 S15       30.12F
HUTCHINSON     CLOUDY    65  52  62 S15       30.06S
MEDICINE LODGE   N/A     60  57  89 SE8       30.07R
NEWTON         CLOUDY    66  50  55 S18       30.11R
PARSONS        PTSUNNY   73  53  49 S10       30.13F
WICHITA INTL   CLOUDY    66  53  63 S16       30.08R
WICHITA JABRA  CLOUDY    68  54  60 SW15      30.08R
WICHITA MCCONL CLOUDY    67  57  69 S18       30.09R
WINFIELD       CLOUDY    69  55  60 S14G22    30.11R
$$

KSZ007>012-019>026-033>040-048>060-102>105-201700-
NORTHEAST KANSAS

CITY           SKY/WX    TMP DP  RH WIND       PRES   REMARKS
CONCORDIA      PTSUNNY   73  52  47 SW16      30.01S
EMPORIA        MOSUNNY   72  53  51 S18       30.07F
LAWRENCE       MOSUNNY   74  53  48 S13       30.08S
MANHATTAN      MOSUNNY   74  53  48 S17G25    30.03R
OLATHE IND     MOSUNNY   72  52  49 S16G25    30.10F
OLATHE EXE     MOSUNNY   70  52  52 S13G21    30.10S
SALINA         PTSUNNY   73  53  49 S18       30.04R
TOPEKA BILLARD SUNNY     74  52  46 SW16G23   30.07S
TOPEKA FORBES  MOSUNNY   73  53  49 S18       30.07S
$$



USA.gov is the U.S. government's official web portal to all federal, state and local government web resources and services.